Location: Cassagne
(43.1218°N, 0.9901°E)
Time: 14:28:57
(UTC+00:00)

SMAP - Pass Details

Date: 17 February 2020
Orbit: 681 x 683 km, 98.1° (Epoch: 28 March)

Event Time Altitude Azimuth Distance (km) Brightness Sun altitude
Rises 05:55:26 0° 18° (NNE) 3,055 6.6 -10.9°
Reaches altitude 10° 05:57:44 10° 23° (NNE) 2,135 5.8 -10.5°
Maximum altitude 06:02:18 52° 100° (E) 853 4.1 -9.7°
Drops below altitude 10° 06:06:49 10° 177° (S) 2,118 5.8 -8.9°
Sets 06:09:05 0° 182° (S) 3,028 6.5 -8.5°
